CAPE
369 833 1133 1201 1280 880 869 953 953 1083 985 681 361 453 254 183 119 36 92 305 371 512 829 996 1037 1140 1420 1582 1871 1766 1470 1375 1295 1569 1975 1745 1483 1799 1404 1666 1788 950 456
896 1429 1068 1139 1246 1386 573 1185 1131 1208 930 559 498 172 152 385 248 120 80 248 475 576 678 806 1022 1198 1408 1745 1901 1771 1504 1675 1262 1488 1836 1450 1549 1468 1149 1346 1503 771 332
1136 1144 591 416 375 964 1259 1093 1020 1274 1367 396 457 556 309 301 424 663 280 273 348 572 620 679 997 1311 1441 1866 2048 1705 1598 1494 1404 1399 1720 1390 1398 1198 825 986 1055 586 453
1348 784 240 67 13 136 315 405 541 980 468 355 326 478 257 437 463 520 893 686 542 457 515 604 1083 1362 1444 1749 1495 1198 1056 1080 1620 1407 1396 1329 1132 1046 564 631 672 604 497
701 15 0 0 0 0 198 431 919 1386 1003 304 456 545 300 223 140 48 205 180 288 287 367 679 1279 1561 1352 1262 644 226 360 1097 1389 1889 1212 1251 871 900 518 371 305 348 327
736 278 0 0 0 0 283 834 717 1460 589 838 51 297 179 198 0 0 81 124 0 3 415 656 1548 1667 1139 819 189 339 686 697 1078 1518 1691 1060 756 831 486 228 165 129 215
311 60 0 0 0 0 0 268 243 330 175 239 0 0 0 43 98 0 0 0 25 0 353 646 1554 1656 988 668 200 513 458 752 1084 1363 1805 904 787 805 566 268 101 32 53
182 88 0 0 0 1 18 414 480 123 5 55 84 0 0 0 0 0 0 0 0 0 0 503 1065 1067 841 538 469 695 748 764 930 1206 1407 1398 597 534 706 401 163 33 0
682 225 63 0 8 12 0 3 0 436 0 0 0 40 0 12 0 0 2 0 0 4 95 261 52 543 45 517 353 641 630 408 601 844 1091 1151 571 409 459 571 353 122 11
1274 585 416 186 385 471 221 416 765 298 99 0 0 0 107 23 14 12 19 0 6 63 63 0 392 535 498 160 129 596 479 371 351 590 850 982 911 442 361 362 502 330 110
1063 1398 632 624 775 900 1141 1637 1457 1437 973 174 46 77 5 53 177 121 242 118 4 50 109 15 482 838 422 393 0 397 258 137 103 169 275 535 848 808 533 436 295 437 263
872 937 1465 1201 1415 1354 1270 1470 1359 1391 1246 1020 360 599 728 470 509 300 45 140 39 267 174 511 1240 909 765 235 445 164 33 0 0 0 0 28 153 462 834 1015 768 377 512
1069 1088 1446 1306 1315 935 1115 1133 927 669 885 722 678 563 678 410 535 403 169 0 0 86 73 413 725 567 661 436 0 0 0 0 0 0 0 0 0 0 0 143 761 1285 688
821 936 933 606 1264 1352 1255 1276 967 1082 1285 862 454 591 733 659 844 352 500 282 64 77 154 188 366 535 875 316 82 0 0 0 0 0 0 0 0 0 0 0 1 398 1161
463 317 119 50 410 1160 1071 939 986 865 1018 888 734 894 875 1056 913 489 420 563 535 55 24 363 419 566 218 0 330 0 0 0 0 0 0 0 0 0 0 0 0 0 135
368 77 19 358 834 1107 1127 1069 740 870 886 706 799 802 622 386 612 665 605 426 434 387 170 610 458 426 433 319 20 0 0 0 0 0 0 0 0 0 0 0 0 0 0
309 4 658 577 901 927 1236 1209 1016 876 902 627 371 358 703 813 798 860 373 734 530 498 128 355 653 496 407 692 51 0 0 0 0 0 0 0 0 0 0 0 0 0 0
720 648 895 1173 1167 912 1117 1149 1002 914 1092 692 695 621 383 577 731 522 324 592 509 449 321 158 293 346 593 621 56 0 0 0 0 0 0 0 0 0 0 0 0 0 0
832 696 1014 920 622 613 698 785 1003 988 1005 895 891 727 408 520 721 419 172 155 247 340 275 150 22 138 88 331 473 26 0 0 0 0 0 0 0 0 0 0 0 0 0
922 715 816 797 637 630 761 594 915 862 720 690 911 662 550 568 673 706 575 403 467 526 531 246 153 97 188 197 194 53 1 0 0 0 0 0 0 0 0 0 0 0 0
850 688 538 738 1117 967 767 794 642 698 467 604 794 650 661 532 558 342 341 421 385 229 154 91 63 96 52 77 102 59 38 2 0 0 0 0 0 0 0 0 0 0 0
610 907 948 910 968 941 421 217 95 188 345 329 144 133 534 529 670 399 278 109 87 85 99 57 18 19 84 54 0 0 19 14 122 0 0 0 0 0 0 0 0 0 0
750 854 644 474 506 498 245 133 52 41 92 21 43 140 179 132 19 80 205 26 0 0 13 23 56 24 49 18 28 90 113 161 122 45 0 0 0 0 0 0 0 0 0
427 378 281 450 523 59 30 0 0 0 6 9 0 2 17 0 0 0 0 0 12 0 0 0 0 0 0 0 0 9 19 112 122 37 0 0 0 0 0 0 0 0 0
277 124 8 8 13 0 0 0 0 0 1 0 0 0 0 0 0 0 0 6 0 0 0 0 0 0 0 0 0 0 0 1 41 1 0 0 0 0 0 0 0 0 0
0 0 0 0 0 0 0 0 0 0 1 0 0 0 0 0 0 0 0 0 1 0 0 0 0 0 0 0 0 0 0 0 0 0 0 0 0 0 0 0 0 0 0
CIN
-61 -41 -49 -61 -64 -80 -74 -59 -69 -36 -37 -50 -79 -77 -131 -149 -203 -258 -262 -207 -199 -171 -140 -138 -129 -124 -112 -106 -82 -58 -50 -56 -50 -52 -40 -43 -57 -30 -57 -5 -1 -64 -118
-31 -16 -29 -37 -41 -42 -47 -28 -31 -30 -29 -47 -53 -99 -102 -104 -148 -197 -223 -172 -137 -146 -146 -133 -128 -115 -103 -95 -77 -58 -48 -45 -53 -50 -46 -64 -54 -41 -56 -13 -3 -62 -115
-22 -62 -84 -99 -150 -85 -59 -62 -47 -20 -22 -41 -61 -80 -105 -84 -90 -86 -130 -155 -154 -124 -130 -134 -103 -94 -86 -67 -56 -49 -48 -49 -50 -48 -43 -60 -56 -52 -65 -27 -15 -41 -35
-30 -70 -144 -225 -168 -205 -144 -126 -108 -60 -42 -39 -54 -60 -88 -70 -52 -28 -46 -79 -66 -72 -110 -122 -81 -79 -66 -60 -61 -68 -74 -65 -47 -52 -62 -71 -68 -55 -71 -47 -24 -8 -3
-51 -84 -0 -0 -0 -0 -155 -184 -122 -76 -34 -25 -35 -48 -114 -162 -172 -118 -212 -268 -227 -146 -96 -80 -89 -77 -59 -53 -82 -129 -104 -68 -54 -36 -68 -85 -93 -64 -67 -60 -51 -13 -0
-65 -135 -0 -0 -0 -0 -139 -124 -161 -79 -147 -102 -118 -95 -143 -206 -0 -0 -291 -240 -0 -89 -115 -80 -80 -70 -67 -63 -134 -102 -73 -84 -68 -57 -47 -98 -111 -74 -68 -71 -59 -32 -1
-136 -247 -0 -0 -0 -17 -0 -259 -295 -161 -125 -183 -0 -0 -1 -152 -192 -0 -1 -0 -237 -1 -109 -72 -94 -59 -63 -66 -99 -93 -87 -88 -79 -78 -57 -97 -105 -81 -69 -66 -77 -81 -46
-142 -229 -0 -0 -0 -181 -209 -221 -147 -163 -244 -249 -165 -0 -0 -0 -0 -16 -0 -39 -0 -0 -0 -48 -59 -52 -70 -85 -98 -92 -94 -99 -92 -83 -83 -75 -101 -106 -74 -70 -84 -96 -0
-55 -103 -187 -0 -118 -307 -0 -162 -0 -102 -0 -0 -0 -215 -0 -105 -0 -43 -69 -24 -0 -109 -167 -123 -88 -71 -211 -123 -117 -111 -116 -133 -114 -99 -86 -84 -98 -105 -99 -71 -54 -58 -131
-32 -76 -136 -281 -186 -142 -115 -100 -73 -109 -96 -0 -0 -18 -310 -268 -105 -63 -104 -0 -34 -87 -151 -0 -70 -87 -108 -122 -110 -112 -108 -144 -131 -114 -98 -87 -84 -96 -99 -94 -68 -51 -66
-6 -28 -98 -100 -68 -83 -59 -18 -15 -18 -54 -131 -210 -184 -121 -193 -125 -110 -20 -57 -194 -135 -129 -111 -44 -100 -90 -125 -0 -115 -140 -176 -161 -137 -133 -110 -95 -85 -88 -83 -94 -72 -61
-22 -14 -8 -13 -19 -16 -21 -23 -20 -19 -12 -21 -87 -27 -19 -18 -23 -37 -14 -47 -27 -49 -75 -61 -82 -86 -103 -154 -133 -174 -169 -0 -0 -0 -0 -126 -160 -119 -86 -65 -61 -71 -42
-25 -15 -16 -14 -13 -26 -23 -17 -19 -20 -25 -25 -28 -50 -51 -47 -43 -31 -37 -0 -0 -25 -55 -62 -73 -121 -117 -150 -0 -0 -0 -0 -0 -0 -0 -0 -0 -0 -0 -178 -76 -27 -43
-41 -62 -48 -54 -15 -12 -11 -13 -16 -14 -12 -31 -42 -28 -39 -40 -38 -40 -19 -24 -9 -14 -29 -55 -118 -112 -72 -129 -165 -0 -0 -0 -0 -0 -0 -0 -0 -0 -0 -0 -37 -91 -25
-53 -73 -97 -146 -77 -19 -14 -22 -10 -9 -13 -20 -25 -21 -28 -24 -28 -40 -38 -38 -18 -13 -16 -32 -48 -76 -107 -0 -135 -0 -0 -0 -0 -0 -0 -0 -0 -0 -0 -0 -0 -0 -100
-102 -117 -26 -89 -45 -22 -8 -12 -15 -18 -25 -32 -23 -16 -25 -29 -30 -32 -31 -35 -37 -31 -54 -26 -41 -48 -62 -102 -169 -0 -0 -0 -0 -0 -0 -0 -0 -0 -0 -0 -0 -0 -0
-96 -57 -60 -61 -28 -17 -13 -10 -16 -21 -16 -27 -33 -29 -18 -13 -11 -23 -36 -37 -33 -40 -38 -30 -36 -39 -44 -39 -105 -0 -0 -0 -0 -0 -0 -0 -0 -0 -0 -0 -0 -0 -0
-37 -33 -33 -11 -12 -28 -16 -19 -27 -22 -20 -33 -25 -22 -30 -16 -10 -17 -30 -29 -24 -39 -38 -33 -65 -36 -21 -31 -88 -0 -0 -0 -0 -0 -0 -0 -0 -0 -0 -0 -0 -0 -0
-17 -18 -8 -16 -41 -44 -45 -40 -27 -23 -19 -18 -18 -22 -26 -21 -15 -22 -56 -67 -40 -32 -57 -75 -66 -79 -58 -27 -32 -67 -0 -0 -0 -0 -0 -0 -0 -0 -0 -0 -0 -0 -0
-10 -26 -23 -27 -45 -50 -45 -50 -21 -14 -18 -19 -13 -21 -26 -24 -18 -17 -24 -33 -32 -27 -23 -52 -48 -50 -57 -74 -66 -95 -19 -0 -0 -0 -0 -0 -0 -0 -0 -0 -0 -0 -0
-20 -29 -39 -33 -24 -31 -30 -25 -21 -16 -20 -7 -11 -20 -21 -29 -26 -34 -30 -27 -25 -23 -30 -35 -42 -35 -45 -56 -46 -72 -65 -109 -0 -0 -0 -0 -0 -0 -0 -0 -0 -0 -0
-25 -21 -22 -18 -11 -11 -36 -49 -54 -28 -21 -11 -26 -25 -12 -7 -10 -27 -38 -90 -89 -44 -30 -34 -46 -40 -31 -46 -1 -1 -105 -88 -9 -0 -0 -0 -0 -0 -0 -0 -0 -0 -0
-16 -13 -11 -12 -9 -13 -34 -40 -62 -47 -28 -21 -21 -25 -33 -56 -47 -54 -41 -50 -0 -0 -90 -49 -38 -23 -27 -46 -77 -34 -37 -22 -23 -64 -0 -0 -0 -0 -0 -0 -0 -0 -0
-23 -31 -35 -20 -14 -30 -44 -0 -0 -0 -53 -25 -0 -48 -82 -0 -0 -0 -0 -0 -23 -0 -0 -0 -0 -0 -0 -0 -0 -36 -75 -35 -33 -35 -0 -0 -0 -0 -0 -0 -0 -0 -0
-37 -89 -25 -22 -16 -0 -0 -0 -0 -0 -28 -0 -0 -0 -0 -0 -0 -0 -0 -79 -0 -0 -0 -0 -0 -0 -0 -0 -0 -0 -0 -17 -39 -5 -0 -0 -0 -0 -0 -0 -0 -0 -0
-0 -0 -0 -0 -0 -0 -0 -0 -0 -0 -4 -0 -0 -0 -0 -0 -0 -0 -0 -0 -0 -0 -0 -0 -0 -0 -0 -0 -0 -0 -0 -0 -0 -10 -0 -0 -0 -0 -0 -0 -0 -0 -0
Wind_Speed
18 19 24 24 22 21 20 19 20 18 17 14 14 23 20 24 22 22 22 21 19 17 16 16 16 16 14 14 13 15 18 19 22 22 21 22 24 25 26 25 24 23 20
20 18 18 19 19 21 22 20 21 20 16 15 12 11 8 18 21 20 19 17 15 13 13 14 15 14 14 14 14 15 16 17 20 22 22 22 24 25 26 24 24 22 6
13 10 11 12 14 13 13 13 15 17 18 19 17 7 19 18 19 16 14 12 11 11 10 12 13 13 15 16 16 16 16 17 18 20 22 23 23 25 25 24 24 23 21
9 10 12 13 14 14 12 12 14 15 21 20 21 20 17 17 16 16 17 17 16 13 12 12 12 14 16 18 18 17 17 17 17 18 21 23 23 24 24 24 25 24 22
8 11 12 15 16 13 12 13 15 18 21 21 17 1 15 16 18 19 21 24 23 17 14 14 16 15 17 18 18 17 19 18 18 17 19 22 23 23 23 23 25 25 25
9 11 13 14 15 14 14 14 14 13 11 13 11 12 16 17 18 20 20 27 30 39 14 8 17 17 17 18 19 20 19 18 18 18 18 22 23 23 23 23 23 24 24
8 11 17 16 10 9 16 17 19 17 14 16 12 13 14 18 21 24 19 12 6 3 11 15 14 18 17 16 18 19 16 15 17 19 19 20 22 23 22 22 23 24 24
20 22 17 7 10 14 14 16 17 16 13 17 14 13 8 15 21 22 24 19 13 7 7 8 15 24 25 12 18 18 13 10 14 17 18 19 21 22 22 22 22 22 23
15 19 22 19 8 16 12 13 13 17 17 14 16 16 11 11 11 8 6 12 15 14 10 7 17 18 22 19 19 18 6 7 15 18 18 18 19 19 21 21 21 21 21
11 18 21 20 18 14 15 13 15 15 14 12 16 16 16 20 13 9 7 11 8 13 9 8 18 18 19 18 19 21 22 7 18 22 18 16 16 16 17 19 19 19 20
9 13 17 19 19 19 17 16 17 16 15 12 13 13 16 14 14 12 8 11 9 10 9 8 16 19 20 11 19 20 20 21 21 18 18 16 15 13 14 15 17 18 18
17 19 14 15 18 15 18 16 9 10 11 12 12 13 12 12 11 10 8 11 10 9 11 15 19 19 18 17 21 21 15 21 15 7 8 8 10 11 12 13 15 16 17
13 16 10 11 16 17 16 15 13 12 12 11 12 15 16 14 12 12 11 9 8 13 16 18 16 15 17 19 20 21 21 18 20 13 14 14 9 9 10 12 14 16 16
9 10 7 11 18 15 15 16 15 15 11 11 12 14 16 15 15 14 15 4 10 12 13 14 13 15 17 16 17 17 20 21 22 22 21 21 19 17 15 11 14 16 16
9 8 8 18 15 19 15 14 17 17 9 10 12 16 10 16 19 20 20 21 17 8 10 15 14 14 14 11 14 15 19 21 21 22 22 22 22 22 21 20 17 15 15
9 8 10 7 9 10 11 11 11 9 15 19 14 15 21 20 21 19 21 22 20 17 16 16 14 12 10 14 14 16 19 19 20 21 21 21 22 22 22 22 19 17 17
9 8 9 14 11 9 11 10 10 9 9 10 11 19 20 18 13 17 19 19 21 19 20 18 15 10 12 10 12 15 17 18 18 20 21 21 21 21 21 21 20 19 18
8 6 9 8 10 10 9 9 8 9 12 15 16 18 23 22 18 19 18 17 20 20 18 18 19 20 18 13 10 12 15 16 17 18 19 20 20 21 21 21 20 19 18
4 6 10 6 9 7 7 7 8 8 10 15 17 16 18 21 18 21 20 21 19 17 16 18 20 18 19 19 11 14 17 15 16 16 18 20 20 19 20 20 20 20 19
2 3 4 6 6 6 8 10 10 11 13 16 17 19 19 20 20 20 20 21 20 18 17 17 19 18 19 19 16 13 17 13 11 12 16 16 18 19 19 19 20 20 20
3 4 6 9 11 10 13 15 15 15 17 19 20 23 23 23 23 22 22 21 19 19 18 18 20 19 20 18 19 15 11 10 3 12 10 11 15 17 18 19 19 19 19
8 11 13 16 19 16 15 17 21 22 19 19 22 25 26 26 25 23 22 20 18 19 20 22 22 21 19 18 16 14 16 12 13 4 6 10 12 15 16 17 17 17 18
18 21 23 26 24 20 19 21 21 22 23 23 25 24 24 23 25 26 25 24 22 20 20 20 22 22 22 22 22 20 18 16 15 15 9 11 13 14 14 15 15 16 16
22 25 26 27 27 24 22 23 23 24 25 27 25 22 21 22 25 26 26 27 20 20 21 20 19 20 21 23 21 20 21 21 21 21 17 17 14 18 14 14 13 15 15
23 23 24 25 24 25 26 25 25 27 24 23 23 23 20 22 25 25 25 26 19 19 19 18 16 19 21 23 24 21 24 23 24 21 25 20 17 17 16 16 15 15 16
19 21 22 23 23 25 26 25 24 22 20 19 20 20 21 22 24 24 24 22 19 21 17 17 17 19 20 22 23 23 23 23 24 23 26 21 20 20 21 18 16 16 16
Wind_Direction
198 197 191 193 191 192 194 194 186 187 187 198 189 137 124 126 116 114 121 123 118 106 98 81 68 62 64 67 75 75 66 63 59 64 65 61 52 48 43 47 52 33 18
196 206 211 216 219 210 199 198 185 184 198 205 231 238 279 90 133 124 124 126 120 108 98 81 69 70 72 73 76 80 75 72 69 67 67 65 57 55 54 63 71 88 100
232 251 242 249 240 241 228 236 230 213 197 183 202 328 97 174 146 144 150 145 137 129 111 95 79 84 77 71 74 81 79 79 79 73 69 68 65 63 64 73 82 95 115
251 255 254 251 250 247 254 241 236 231 190 117 133 171 92 96 98 225 262 267 209 168 149 107 97 89 81 72 79 78 85 87 87 82 74 73 73 73 74 80 86 100 114
270 268 268 255 245 256 254 258 253 239 211 173 142 344 345 359 0 340 323 305 285 271 177 128 87 95 84 78 80 86 87 87 88 90 84 78 80 83 83 87 91 100 108
260 271 270 262 248 249 262 256 262 270 313 320 39 49 20 5 353 350 357 326 296 282 242 217 89 84 88 84 81 81 89 92 88 89 96 86 84 89 92 93 97 104 113
352 300 187 237 272 270 251 262 261 242 296 285 80 12 3 345 312 305 350 41 108 185 164 124 107 77 85 94 86 84 99 101 96 93 99 94 89 90 95 99 101 104 112
84 103 158 196 250 238 281 282 280 243 294 342 21 12 16 312 353 339 299 250 238 240 209 217 58 29 29 124 89 90 111 124 109 103 99 99 93 93 96 101 107 110 113
77 96 124 187 12 214 286 332 316 223 178 72 353 355 349 208 243 167 153 299 281 250 231 168 75 74 56 83 71 85 242 151 109 96 98 99 97 99 99 104 108 113 116
63 116 135 146 177 239 244 301 121 123 102 40 32 299 333 307 207 180 205 237 98 202 228 222 93 77 81 94 92 58 38 178 94 72 92 104 105 111 111 109 112 115 119
306 82 121 140 181 187 223 244 273 332 24 83 92 142 30 126 191 197 225 131 157 193 190 185 114 77 78 123 346 18 74 62 72 93 91 104 112 125 128 126 123 123 126
116 157 93 107 185 231 215 291 323 1 95 70 138 179 161 147 184 182 184 128 128 148 145 98 69 89 76 95 71 72 114 26 32 189 168 169 150 142 141 143 142 134 132
280 149 69 68 153 176 184 176 161 144 107 133 179 215 224 235 227 251 208 155 137 101 82 67 77 98 67 72 69 50 54 360 347 293 304 294 244 209 178 163 150 140 134
329 347 10 332 202 164 171 186 182 201 114 60 195 194 230 223 235 254 287 132 118 94 90 78 81 72 54 61 43 73 53 32 19 357 346 344 327 316 298 175 142 134 135
57 51 23 191 167 204 173 180 204 210 94 120 169 270 212 230 310 314 350 345 34 107 83 46 57 62 88 92 78 73 32 23 22 16 9 3 357 354 354 351 24 85 85
93 17 15 77 90 119 145 97 134 73 349 323 358 345 315 317 315 337 318 330 354 18 25 21 44 72 84 42 63 41 24 25 22 19 17 14 11 8 11 18 21 22 20
99 52 88 150 123 35 122 99 106 119 62 37 15 333 334 347 10 351 340 339 329 346 339 359 26 58 38 51 39 26 20 22 22 21 21 20 17 15 14 15 20 20 15
113 54 108 75 4 13 42 73 101 71 30 9 357 336 313 323 342 338 343 346 340 339 348 343 344 342 347 13 27 22 10 8 14 17 16 17 19 21 21 19 14 12 10
26 2 343 20 7 39 68 41 37 40 28 3 351 352 339 330 341 333 333 332 344 351 352 348 346 351 349 344 14 8 347 355 0 17 20 15 17 18 16 16 15 14 13
70 44 21 9 16 20 8 5 9 7 2 352 348 341 337 333 335 337 334 334 338 342 345 344 344 345 347 345 351 356 1 351 358 4 3 16 18 18 15 14 13 13 11
7 358 350 344 343 349 346 343 342 343 342 338 336 334 331 327 326 330 328 329 333 334 334 334 336 338 335 340 336 349 356 356 27 344 15 19 7 7 9 8 9 8 9
316 318 320 319 318 327 337 335 327 328 332 334 330 327 325 324 327 326 327 331 332 330 326 322 326 327 332 337 342 340 343 347 341 11 358 351 354 353 1 6 10 6 3
303 303 303 303 311 320 323 321 322 323 322 328 325 327 328 329 324 324 324 325 327 327 326 323 320 322 320 325 324 325 328 334 332 339 331 328 335 341 351 357 1 1 1
303 302 303 306 308 315 320 318 319 319 320 320 322 327 330 330 323 322 321 321 329 332 332 332 332 328 325 321 322 325 324 322 323 328 325 317 317 321 333 344 353 358 356
305 309 310 312 313 315 317 318 320 315 325 325 325 324 329 330 325 325 325 320 323 325 331 336 343 340 336 331 326 323 321 320 316 321 326 321 317 318 319 323 330 338 341
317 315 316 318 320 318 322 324 326 328 329 332 331 330 330 330 328 330 331 326 322 318 322 327 329 333 335 337 338 339 332 323 317 315 324 320 321 317 311 314 313 321 328